OBJECT CG, 58334

Orbit data source: Space-Track

You're viewing an Uncataloged Satellite

Recently launched and/or uncataloged satellites may have evolving metadata. Metadata may include but not limited to: Owner, Maufacturer, Bus, Motor, and Mission.

OBJECT CG, 58334 is a satellite in SSO that was launched on Sat, 11 Nov 2023 UTC via an FALCON 9 launch vehicle from the Air Force Western Test Range (AFWTR). Unknown objects in Earth's orbit typically refer to objects detected orbiting the Earth but have not yet been identified or cataloged. These objects could be anything from previously untracked satellites, spent rocket stages, debris from satellite collisions, or even natural meteoroids temporarily captured by Earth's gravity.

Not visible in the next 10 days
Identifier
58334, 2023-174CG
Orbit
SSO
Country
Flag of TBDTBD
Related business
Manufacturer
Outpost Tech
Mission
Operational Commercial Technology
Bus & Motor
CUBESAT 3U, Unknown motor
Mass
3 kg wet, 3 kg dry
Launch date (UTC)
2023-11-11 (2 years ago)
Launch vehicle
FALCON 9
Launch site
Air Force Western Test Range (AFWTR)
Object type
Unknown
Shape & HBR
Box, 0.1 m
Radar Cross Section
0.035 m², Small (<0.1 m²)

Expand to show TLE details & history
Last TLE update: 13 hours ago

TLE from 13 hours ago
0 OBJECT CG
1 58334U 23174CG  26126.49853402  .00032706  00000-0  49110-3 0  9998
2 58334  97.3953 217.9713 0004515 260.6582  99.4161 15.54821746139348
Epoch: 2026-05-06T11:57Z
TLE epoch observation values (Epoch: 2026-05-06T11:57:53.339Z)
Latitude
-0.00007°
Longitude
174.1409°
Altitude
406.311 km
Speed
7.667 km/s
True Right ascension
14h 31m 53s
True Declination
0° 00' 00"
Sunlit
Object was in full shadow at epoch
Visualization orbit readout
Latitude
Unknown
Longitude
Unknown
Altitude
Unknown
Speed
Unknown
Apparent Right ascension
Unknown
Apparent Declination
Unknown
Sunlit
N/A
Visualization observer readout
Local Sidereal Time
08:27:56
Azimuth
Unknown
Elevation
Unknown
Doppler factor
Unknown
Orbital elements
Apogee altitude
402.65 km
Perigee altitude
396.53 km
Semi-major axis
6,777.727 km
Eccentricity
0.00045
Inclination
97.3953°
RAAN
217.9713°
Arg. of periapsis
260.6582°
True anomaly
99.46714°
Mean anomaly
99.4161°
Eccentric anomaly
99.44162°
Mean motion
3.88971 °/min
Orbital period
92.55 mins
BSTAR
0.0004911
Loading maneuver chart data...
Computing Atmospheric mass density...
Loading historical data...
Loading historical data...
Loading historical data...
Loading historical data...
Loading historical data...
Loading historical data...
Loading historical data...

Documentation

Showing up to 5 results
|